This demonstration page uses our WeatherBlox Daily Observations layout. Learn more.

Left ArrowRight Arrow

Hourly Observations for December 28, 2020

Temp ( °F °C ) Dew Point ( °F °C ) Humidity (%) Winds ( mph kmh ) Pressure ( in mb ) Visibility ( mi km ) Precip ( " mm )
12:51 am 00:51 Mostly Cloudy 45 7.2 26 -3.3 48 48 NE 5 7 29.91 1013 10 16.0934 0 0
1:51 am 01:51 Cloudy 44 6.7 27 -2.8 51 51 WNW 5 7 29.93 1013 10 16.0934 0 0
2:51 am 02:51 Mostly Clear 46 7.8 27 -2.8 47 47 Calm 29.91 1013 10 16.0934 0 0
3:51 am 03:51 Mostly Cloudy 44 6.7 27 -2.8 51 51 Calm 29.9 1013 10 16.0934 0 0
4:51 am 04:51 Clear 46 7.8 26 -3.3 46 46 ESE 10 17 29.84 1011 10 16.0934 0 0
5:51 am 05:51 Clear 47 8.3 27 -2.8 46 46 SE 14 22 29.87 1011 10 16.0934 0 0
6:51 am 06:51 Clear 48 8.9 27 -2.8 44 44 SE 14 22 29.88 1012 10 16.0934 0 0
7:51 am 07:51 Sunny 49 9.4 27 -2.8 43 43 SE 14 22 29.88 1012 10 16.0934 0 0
8:51 am 08:51 Sunny 54 12.2 28 -2.2 37 37 ESE 15 24 29.88 1012 10 16.0934 0 0
9:51 am 09:51 Sunny 59 15 27 -2.8 29 29 ESE 21 33 29.86 1011 10 16.0934 0 0
10:51 am 10:51 Sunny 66 18.9 29 -1.7 25 25 ESE 16 26 29.83 1010 10 16.0934 0 0
11:51 am 11:51 Sunny 71 21.7 28 -2.2 20 20 SSE 20 31 29.78 1008 10 16.0934 0 0
12:51 pm 12:51 Sunny 72 22.2 27 -2.8 19 19 S 20 31 29.73 1007 10 16.0934 0 0
1:51 pm 13:51 Sunny 72 22.2 26 -3.3 18 18 SW 10 17 29.7 1006 10 16.0934 0 0
2:51 pm 14:51 Sunny 74 23.3 26 -3.3 17 17 SSW 14 22 29.66 1005 10 16.0934 0 0
3:51 pm 15:51 Sunny 73 22.8 24 -4.4 16 16 SW 22 35 29.67 1005 10 16.0934 0 0
4:51 pm 16:51 Sunny 70 21.1 23 -5 17 17 SW 14 22 29.69 1005 10 16.0934 0 0
5:51 pm 17:51 Clear 65 18.3 25 -3.9 22 22 SW 10 17 29.71 1006 10 16.0934 0 0
6:51 pm 18:51 undefined 59 15 30 -1.1 33 33 WNW 20 31 29.76 1008 10 16.0934 0 0
7:51 pm 19:51 Clear 56 13.3 34 1.1 44 44 WNW 16 26 29.8 1009 10 16.0934 0 0
8:51 pm 20:51 Clear 54 12.2 34 1.1 47 47 NW 14 22 29.8 1009 10 16.0934 0 0
9:51 pm 21:51 Clear 52 11.1 34 1.1 50 50 NW 17 28 29.81 1010 10 16.0934 0 0
10:51 pm 22:51 Clear 51 10.6 33 0.6 50 50 NW 10 17 29.81 1009 10 16.0934 0 0
11:51 pm 23:51 Mostly Clear 50 10 33 0.6 52 52 NNW 12 19 29.79 1009 10 16.0934 0 0

Powered by AerisWeather